Terminal Aerodrome Forecast
Issued by NWS

Home | Current Version | Previous Version | Text Only | Print | Product List | Glossary On
Versions: 1 2 3 4 5 6 7 8 9 10 11 12 13 14 15 16 17 18 19 20 21 22 23 24 25 26 27 28 29 30 31 32 33 34 35 36 37 38 39 40 41 42 43 44
117
FTUS44 KLIX 190547
TAFHDC
TAF
KHDC 190547Z 1906/2006 15005KT 4SM BR VCSH OVC004
     FM191200 16004KT 1 1/2SM BR VCTS OVC008CB
     FM191600 18007KT 3SM -SHRA BR VCTS OVC025CB
      TEMPO 1918/1922 2SM +TSRA OVC015CB
     FM192300 19004KT P6SM -SHRA VCTS BKN020CB
     FM200100 17007KT 2SM BR VCSH OVC004=

USA.gov is the U.S. government's official web portal to all federal, state and local government web resources and services.